K5DLF-13 Weather Reports


Display with metric or nautical units.
time (UTC)temp
F
wind
direction
speed
MPH
gust
MPH
rain 1hr
in
rain 24hr
in
rain mn
in
humidity
%
barometer
mb
20260505111958 73 161 0.0 0.0 0.00 0.00 0.00 93 1006.7
20260505111458 73 161 0.0 0.0 0.00 0.00 0.00 93 1006.7
20260505110958 73 161 0.0 0.0 0.00 0.00 0.00 93 1006.7
20260505110458 73 161 0.0 0.0 0.00 0.00 0.00 93 1006.7
20260505101958 72 161 0.0 0.0 0.00 0.00 0.00 92 1006.5
20260505101458 72 161 0.0 0.0 0.00 0.00 0.00 92 1006.5
20260505100958 72 161 0.0 0.0 0.00 0.00 0.00 92 1006.3
20260505100458 72 161 0.0 0.0 0.00 0.00 0.00 92 1006.3
20260505095958 72 161 0.0 0.0 0.00 0.00 0.00 92 1006.3
20260505095458 72 161 0.0 0.0 0.00 0.00 0.00 92 1006.3
20260505094958 72 161 0.0 0.0 0.00 0.00 0.00 92 1006.4
20260505094458 72 161 0.0 0.0 0.00 0.00 0.00 92 1006.6
20260505093958 72 161 0.0 0.0 0.00 0.00 0.00 92 1006.7
20260505093458 72 161 0.0 1.0 0.00 0.00 0.00 92 1006.8
20260505092958 72 161 0.0 2.0 0.00 0.00 0.00 92 1006.8
20260505092458 72 161 0.0 1.0 0.00 0.00 0.00 92 1006.7
20260505091958 72 161 0.0 1.0 0.00 0.00 0.00 92 1006.6
20260505091458 72 161 0.0 1.0 0.00 0.00 0.00 91 1006.6
20260505090958 72 161 0.0 2.0 0.00 0.00 0.00 91 1006.7
20260505090458 72 161 0.0 4.0 0.00 0.00 0.00 91 1006.9
20260505085958 72 161 0.0 2.0 0.00 0.00 0.00 91 1006.8
20260505085458 73 161 0.0 4.0 0.00 0.00 0.00 91 1006.7
20260505084958 73 160 0.0 0.0 0.00 0.00 0.00 91 1006.7
20260505084458 73 160 0.0 0.0 0.00 0.00 0.00 90 1006.6
20260505083958 73 160 0.0 0.0 0.00 0.00 0.00 90 1006.6
20260505083458 73 160 0.0 2.0 0.00 0.00 0.00 91 1006.6
20260505082958 73 159 1.0 4.0 0.00 0.00 0.00 91 1006.7
20260505082458 73 159 0.0 4.0 0.00 0.00 0.00 91 1006.8
20260505081958 73 159 0.0 0.0 0.00 0.00 0.00 91 1006.8
20260505081458 73 159 0.0 0.0 0.00 0.00 0.00 91 1006.8
20260505080958 72 159 0.0 0.0 0.00 0.00 0.00 91 1007.0
20260505080458 72 159 0.0 0.0 0.00 0.00 0.00 91 1007.0
20260505075958 72 159 0.0 0.0 0.00 0.00 0.00 92 1007.1
20260505075458 72 159 0.0 0.0 0.00 0.00 0.00 91 1007.1
20260505074958 72 159 0.0 0.0 0.00 0.00 0.00 91 1007.1
20260505074458 72 158 0.0 0.0 0.00 0.00 0.00 91 1007.1
20260505073958 72 158 0.0 2.0 0.00 0.00 0.00 92 1006.9
20260505073458 72 158 0.0 3.0 0.00 0.00 0.00 92 1007.1
20260505072958 72 156 0.0 2.0 0.00 0.00 0.00 92 1007.1
20260505072458 72 156 0.0 3.0 0.00 0.00 0.00 92 1007.2
20260505071958 71 156 0.0 2.0 0.00 0.00 0.00 92 1007.3
20260505071458 71 154 0.0 0.0 0.00 0.00 0.00 92 1007.3
20260505070958 71 154 0.0 0.0 0.00 0.00 0.00 93 1007.3
20260505070458 71 154 0.0 0.0 0.00 0.00 0.00 93 1007.3
20260505065958 71 154 0.0 0.0 0.00 0.00 0.00 93 1007.4
20260505065458 71 154 0.0 0.0 0.00 0.00 0.00 93 1007.6
20260505064958 70 154 0.0 0.0 0.00 0.00 0.00 93 1007.7
20260505064458 70 154 0.0 0.0 0.00 0.00 0.00 93 1007.8
20260505063958 70 154 0.0 0.0 0.00 0.00 0.00 93 1007.9
20260505063458 70 154 0.0 0.0 0.00 0.00 0.00 93 1008.0
20260505062958 70 154 0.0 0.0 0.00 0.00 0.00 93 1008.1
20260505062458 70 154 0.0 0.0 0.00 0.00 0.00 93 1008.2
20260505061958 70 154 0.0 0.0 0.00 0.00 0.00 93 1007.9
20260505061458 69 154 0.0 0.0 0.00 0.00 0.00 92 1008.1
20260505060958 69 154 0.0 0.0 0.00 0.00 0.00 92 1008.2
20260505060458 69 154 0.0 0.0 0.00 0.00 0.00 92 1008.2
20260505055958 69 154 0.0 0.0 0.00 0.00 0.00 92 1008.1
20260505055458 69 154 0.0 0.0 0.00 0.00 0.00 92 1008.3
20260505054958 69 154 0.0 0.0 0.00 0.00 0.00 91 1008.3
20260505054458 69 154 0.0 0.0 0.00 0.00 0.00 91 1008.3
20260505053958 69 154 0.0 0.0 0.00 0.00 0.00 91 1008.3
20260505053458 69 154 0.0 0.0 0.00 0.00 0.00 91 1008.3
20260505052958 69 154 0.0 0.0 0.00 0.00 0.00 91 1008.3
20260505052458 69 154 0.0 0.0 0.00 0.00 0.00 91 1008.3
20260505051958 69 154 0.0 0.0 0.00 0.00 0.00 91 1008.4
20260505051458 69 154 0.0 0.0 0.00 0.00 0.00 91 1008.4
20260505050958 69 154 0.0 0.0 0.00 0.00 0.00 91 1008.3
20260505050458 69 154 0.0 0.0 0.00 0.00 0.00 91 1008.3
20260505041458 69 154 0.0 0.0 0.00 0.00 0.00 90 1008.8
20260505040958 69 154 0.0 0.0 0.00 0.00 0.00 89 1008.6
20260505040458 69 154 0.0 0.0 0.00 0.00 0.00 89 1008.8
20260505035958 69 154 0.0 0.0 0.00 0.00 0.00 89 1008.9
20260505035459 69 154 0.0 0.0 0.00 0.00 0.00 89 1008.9
20260505034959 69 154 0.0 0.0 0.00 0.00 0.00 88 1008.9
20260505034458 69 154 0.0 0.0 0.00 0.00 0.00 88 1009.0
20260505033959 70 154 0.0 0.0 0.00 0.00 0.00 88 1009.0
20260505033459 70 154 0.0 0.0 0.00 0.00 0.00 87 1009.0
20260505032959 70 154 0.0 0.0 0.00 0.00 0.00 87 1009.0
20260505032459 70 154 0.0 0.0 0.00 0.00 0.00 87 1009.0
20260505031959 70 154 0.0 0.0 0.00 0.00 0.00 87 1008.9
20260505031459 70 154 0.0 0.0 0.00 0.00 0.00 86 1009.0
20260505030959 70 154 0.0 0.0 0.00 0.00 0.00 86 1009.1
20260505030459 70 154 0.0 0.0 0.00 0.00 0.00 86 1009.0
20260505025959 70 154 0.0 0.0 0.00 0.00 0.00 86 1009.1
20260505025459 70 154 0.0 0.0 0.00 0.00 0.00 86 1009.1
20260505024959 71 154 0.0 0.0 0.00 0.00 0.00 85 1009.0
20260505024459 71 154 0.0 0.0 0.00 0.00 0.00 85 1009.0
20260505023959 71 154 0.0 0.0 0.00 0.00 0.00 85 1008.8
20260505023459 71 154 0.0 0.0 0.00 0.00 0.00 85 1008.9
20260505022959 71 154 0.0 0.0 0.00 0.00 0.00 84 1009.1
20260505022459 71 154 0.0 0.0 0.00 0.00 0.00 84 1008.9
20260505021959 72 154 0.0 0.0 0.00 0.00 0.00 84 1008.9
20260505021459 72 154 0.0 0.0 0.00 0.00 0.00 83 1008.9
20260505020959 72 154 0.0 0.0 0.00 0.00 0.00 83 1008.9
20260505020459 72 154 0.0 0.0 0.00 0.00 0.00 83 1008.8
20260505015959 72 154 0.0 0.0 0.00 0.00 0.00 83 1008.8
20260505015459 72 154 0.0 0.0 0.00 0.00 0.00 82 1008.7
20260505014959 72 154 0.0 0.0 0.00 0.00 0.00 82 1008.7
20260505014459 73 154 0.0 0.0 0.00 0.00 0.00 82 1008.6
20260505013959 73 154 0.0 0.0 0.00 0.00 0.00 82 1008.6
20260505013459 73 154 0.0 0.0 0.00 0.00 0.00 81 1008.7
20260505012959 73 154 0.0 0.0 0.00 0.00 0.00 81 1008.7
20260505012459 73 154 0.0 0.0 0.00 0.00 0.00 81 1008.9
20260505011959 73 154 0.0 0.0 0.00 0.00 0.00 81 1008.7
20260505011459 73 154 0.0 0.0 0.00 0.00 0.00 81 1008.7
20260505010959 73 154 0.0 0.0 0.00 0.00 0.00 81 1008.4
20260505010459 73 154 1.0 1.0 0.00 0.00 0.00 80 1008.7
20260505005959 73 154 1.0 3.0 0.00 0.00 0.00 80 1008.5
20260505005459 73 154 0.0 2.0 0.00 0.00 0.00 80 1008.5
20260505004959 74 154 0.0 0.0 0.00 0.00 0.00 80 1008.5
20260505004459 74 154 0.0 2.0 0.00 0.00 0.00 79 1008.4
20260505003959 74 154 1.0 2.0 0.00 0.00 0.00 79 1008.3
20260505003459 74 154 1.0 4.0 0.00 0.00 0.00 78 1008.3
20260505002959 74 154 2.0 4.0 0.00 0.00 0.00 78 1008.4
20260505002459 75 154 2.0 4.0 0.00 0.00 0.00 77 1008.3
20260505001959 75 154 1.0 3.0 0.00 0.00 0.00 77 1008.4
20260505001459 75 154 1.0 3.0 0.00 0.00 0.00 76 1008.4
20260505000959 75 154 2.0 4.0 0.00 0.00 0.00 76 1008.5
20260505000459 76 154 3.0 6.0 0.00 0.00 0.00 75 1008.6
20260504235959 76 154 3.0 7.0 0.00 0.00 0.00 75 1008.7
20260504235459 76 153 3.0 7.0 0.00 0.00 0.00 75 1008.7
20260504234959 76 136 2.0 7.0 0.00 0.00 0.00 74 1008.6
20260504234459 76 152 3.0 5.0 0.00 0.00 0.00 75 1008.6
20260504233959 76 152 3.0 5.0 0.00 0.00 0.00 74 1008.7
20260504233459 77 152 3.0 8.0 0.00 0.00 0.00 74 1008.7
20260504232959 77 204 3.0 6.0 0.00 0.00 0.00 74 1008.9
20260504232459 77 141 3.0 7.0 0.00 0.00 0.00 74 1008.9
20260504231959 77 136 3.0 6.0 0.00 0.00 0.00 74 1009.0
20260504231459 77 168 3.0 7.0 0.00 0.00 0.00 73 1009.0
20260504230959 77 171 2.0 5.0 0.00 0.00 0.00 74 1009.0
20260504230459 77 171 2.0 4.0 0.00 0.00 0.00 74 1009.2
20260504225959 77 171 3.0 6.0 0.00 0.00 0.00 74 1009.3
20260504225459 77 173 2.0 6.0 0.00 0.00 0.00 72 1009.2
20260504224959 78 209 2.0 5.0 0.00 0.00 0.00 74 1009.3
20260504224459 77 211 2.0 5.0 0.00 0.00 0.00 73 1009.2
20260504223959 77 211 2.0 5.0 0.00 0.00 0.00 73 1009.3
20260504223459 77 213 2.0 4.0 0.00 0.00 0.00 74 1009.4
20260504222959 77 217 1.0 4.0 0.00 0.00 0.00 74 1009.5
20260504222459 76 217 1.0 4.0 0.00 0.00 0.00 74 1009.6
20260504221959 76 193 2.0 5.0 0.00 0.00 0.00 74 1009.8
20260504221459 76 190 2.0 4.0 0.00 0.00 0.00 74 1009.6
20260504220959 77 189 1.0 3.0 0.00 0.00 0.00 75 1009.7
20260504220459 76 189 1.0 4.0 0.00 0.00 0.00 74 1009.8
20260504215959 77 189 2.0 4.0 0.00 0.00 0.00 73 1009.8
20260504215459 77 190 1.0 4.0 0.00 0.00 0.00 73 1009.8
20260504214959 77 190 1.0 4.0 0.00 0.00 0.00 74 1009.9
20260504214459 77 190 2.0 3.0 0.00 0.00 0.00 73 1009.9
20260504213959 78 190 2.0 5.0 0.00 0.00 0.00 71 1010.0
20260504213459 78 192 2.0 4.0 0.00 0.00 0.00 71 1010.2
20260504212959 78 199 1.0 5.0 0.00 0.00 0.00 71 1010.1
20260504212459 79 157 2.0 5.0 0.00 0.00 0.00 71 1010.0
20260504211959 79 147 3.0 5.0 0.00 0.00 0.00 71 1010.1
20260504211459 79 148 2.0 5.0 0.00 0.00 0.00 70 1010.1
20260504210959 79 148 2.0 4.0 0.00 0.00 0.00 70 1010.3
20260504210459 79 148 2.0 4.0 0.00 0.00 0.00 71 1010.4
20260504205959 79 148 2.0 5.0 0.00 0.00 0.00 69 1010.4
20260504205459 80 147 2.0 5.0 0.00 0.00 0.00 70 1010.3
20260504204959 79 147 3.0 4.0 0.00 0.00 0.00 72 1010.3
20260504204459 79 147 2.0 4.0 0.00 0.00 0.00 69 1010.5
20260504203959 79 147 2.0 4.0 0.00 0.00 0.00 69 1010.5
20260504203459 80 142 2.0 5.0 0.00 0.00 0.00 68 1010.6
20260504202959 80 142 2.0 4.0 0.00 0.00 0.00 69 1010.6
20260504202459 80 141 2.0 8.0 0.00 0.00 0.00 69 1010.5
20260504201959 80 150 2.0 4.0 0.00 0.00 0.00 68 1010.7
20260504201459 80 150 2.0 3.0 0.00 0.00 0.00 69 1010.8
20260504200959 80 141 3.0 5.0 0.00 0.00 0.00 66 1010.8
20260504200459 81 140 3.0 5.0 0.00 0.00 0.00 67 1010.8
20260504195959 81 141 3.0 5.0 0.00 0.00 0.00 67 1010.8
20260504195459 81 141 3.0 5.0 0.00 0.00 0.00 64 1010.9
20260504194959 81 140 3.0 5.0 0.00 0.00 0.00 68 1010.8
20260504194459 81 140 2.0 5.0 0.00 0.00 0.00 65 1011.1
20260504193959 82 140 2.0 5.0 0.00 0.00 0.00 65 1011.1
20260504193459 82 139 3.0 5.0 0.00 0.00 0.00 65 1011.4
20260504192959 82 137 2.0 5.0 0.00 0.00 0.00 67 1011.4
20260504192459 82 138 3.0 4.0 0.00 0.00 0.00 63 1011.3
20260504191959 82 138 3.0 7.0 0.00 0.00 0.00 65 1011.4
20260504191459 82 214 3.0 5.0 0.00 0.00 0.00 65 1011.3
20260504190959 81 146 3.0 5.0 0.00 0.00 0.00 65 1011.3
20260504190459 82 146 3.0 6.0 0.00 0.00 0.00 67 1011.5
20260504185959 82 147 3.0 8.0 0.00 0.00 0.00 65 1011.5
20260504185459 82 149 3.0 5.0 0.00 0.00 0.00 65 1011.5
20260504184959 82 147 4.0 8.0 0.00 0.00 0.00 63 1011.6
20260504184459 82 148 3.0 9.0 0.00 0.00 0.00 66 1011.5
20260504183959 82 149 3.0 6.0 0.00 0.00 0.00 65 1011.5
20260504183459 82 148 3.0 8.0 0.00 0.00 0.00 64 1011.6
20260504182959 82 148 4.0 7.0 0.00 0.00 0.00 65 1011.6
20260504182459 82 167 3.0 8.0 0.00 0.00 0.00 66 1011.8
20260504181959 82 174 3.0 9.0 0.00 0.00 0.00 67 1011.8
20260504181459 81 189 2.0 4.0 0.00 0.00 0.00 68 1012.0
20260504180959 81 189 3.0 7.0 0.00 0.00 0.00 65 1012.0
20260504180459 81 140 4.0 8.0 0.00 0.00 0.00 66 1012.1
20260504175959 81 171 4.0 6.0 0.00 0.00 0.00 66 1012.1
20260504175500 81 173 3.0 7.0 0.00 0.00 0.00 65 1012.2
20260504175000 81 162 3.0 8.0 0.00 0.00 0.00 66 1012.2
20260504174500 81 166 3.0 6.0 0.00 0.00 0.00 66 1012.3
20260504174000 80 167 3.0 7.0 0.00 0.00 0.00 67 1012.2
20260504173500 81 184 3.0 8.0 0.00 0.00 0.00 64 1012.5
20260504173000 82 209 2.0 4.0 0.00 0.00 0.00 64 1012.7
20260504172500 81 207 3.0 5.0 0.00 0.00 0.00 66 1012.6
20260504172000 81 148 3.0 8.0 0.00 0.00 0.00 66 1012.7
20260504171500 81 148 3.0 6.0 0.00 0.00 0.00 64 1012.7
20260504171000 80 148 3.0 10.0 0.00 0.00 0.00 65 1012.8
20260504170500 81 149 3.0 5.0 0.00 0.00 0.00 67 1012.7
20260504151000 76 213 2.0 6.0 0.00 0.00 0.00 71 1013.4
20260504150500 76 161 3.0 6.0 0.00 0.00 0.00 72 1013.5
20260504141000 67 198 0.0 0.0 0.00 0.00 0.00 95 1013.4
20260504140500 66 198 0.0 0.0 0.00 0.00 0.00 96 1013.4
20260504130500 59 202 0.0 0.0 0.00 0.00 0.00 95 1013.6